User: anonymous   Login
Location: Unspecified
(0.0000°N, 0.0000°E)
Time: 20:04:57
(UTC+00:00)
Language:

Nadezhda 5 - Orbit

View from above orbital plane
View from above orbital plane
View from above satellite
View from above satellite

Ground track
Ground track

The orbit data is extracted from the following two-line orbital elements,

1 25567U 98072A   19340.91847475 +.00000024 +00000-0 +97980-5 0  9997
2 25567 082.9498 043.7401 0024684 243.0288 290.4454 13.71849645050749
Epoch (UTC): 06 December 2019 22:02:36
Eccentricity: 0.0024684
inclination: 82.9498°
perigee height: 975 km
apogee height: 1011 km
right ascension of ascending node: 43.7401°
argument of perigee: 243.0288°
revolutions per day: 13.71849645
mean anomaly at epoch: 290.4454°
orbit number at epoch: 5074

The dashed part of the orbit path shows where the satellite is in the earth's shadow,  

DLR